IZ3VCM Weather Reports


Display with metric or nautical units.
time (UTC)temp
F
wind
direction
speed
MPH
gust
MPH
rain 1hr
in
rain 24hr
in
rain mn
in
humidity
%
barometer
mb
20260830221506 68 0 0.0 0.0 0.00 0.00 0.00 81 1013.8
20260830220008 69 0 0.0 0.0 0.00 0.00 0.00 79 1013.9
20260830214505 71 0 0.0 0.0 0.00 0.00 0.00 77 1013.9
20260830213007 74 0 0.0 0.0 0.00 0.00 0.00 73 1014.0
20260830211505 74 0 0.0 0.0 0.00 0.00 0.00 72 1013.8
20260830210008 75 0 0.0 0.0 0.00 0.00 0.00 72 1013.7
20260830204505 75 156 0.0 2.0 0.00 0.00 0.00 72 1013.8
20260830203007 75 156 0.0 0.0 0.00 0.00 0.00 72 1013.7
20260830201505 74 156 1.0 6.0 0.00 0.00 0.00 72 1013.6
20260830200007 73 0 0.0 0.0 0.00 0.00 0.00 74 1013.5
20260830194505 72 0 0.0 0.0 0.00 0.00 0.00 74 1013.6
20260830193007 73 0 0.0 0.0 0.00 0.00 0.00 73 1013.5
20260830191505 74 0 0.0 0.0 0.00 0.00 0.00 71 1013.5
20260830190007 75 0 0.0 0.0 0.00 0.00 0.00 70 1013.4
20260830184505 76 0 0.0 0.0 0.00 0.00 0.00 68 1013.5
20260830183007 76 0 0.0 0.0 0.00 0.00 0.00 68 1013.2
20260830181505 78 0 0.0 0.0 0.00 0.00 0.00 65 1013.0
20260830180008 79 0 0.0 0.0 0.00 0.00 0.00 64 1012.8
20260830174504 80 0 0.0 0.0 0.00 0.00 0.00 61 1012.7
20260830173007 83 0 0.0 0.0 0.00 0.00 0.00 59 1012.4
20260830171505 86 0 0.0 0.0 0.00 0.00 0.00 56 1012.5
20260830170007 88 0 0.0 0.0 0.00 0.00 0.00 52 1012.7
20260830164505 89 68 0.0 1.0 0.00 0.00 0.00 50 1012.7
20260830163007 91 112 2.0 4.0 0.00 0.00 0.00 49 1012.7
20260830161505 92 112 0.0 1.0 0.00 0.00 0.00 47 1012.8
20260830160007 92 112 1.0 2.0 0.00 0.00 0.00 45 1012.9
20260830154504 92 126 2.0 3.0 0.00 0.00 0.00 45 1012.9
20260830153007 93 135 0.0 1.0 0.00 0.00 0.00 44 1013.1
20260830151505 92 93 2.0 3.0 0.00 0.00 0.00 47 1012.9
20260830150007 92 105 5.0 6.0 0.00 0.00 0.00 48 1012.9
20260830144504 93 102 1.0 2.0 0.00 0.00 0.00 50 1013.0
20260830143007 92 119 2.0 5.0 0.00 0.00 0.00 46 1013.0
20260830141505 93 68 1.0 2.0 0.00 0.00 0.00 48 1013.0
20260830140007 93 37 2.0 5.0 0.00 0.00 0.00 50 1013.3
20260830134505 93 107 1.0 2.0 0.00 0.00 0.00 50 1013.3
20260830133007 93 108 2.0 3.0 0.00 0.00 0.00 49 1013.6
20260830131504 92 78 4.0 5.0 0.00 0.00 0.00 50 1013.7
20260830130007 93 39 3.0 5.0 0.00 0.00 0.00 49 1013.7
20260830124505 94 45 0.0 2.0 0.00 0.00 0.00 46 1013.8
20260830123007 92 94 3.0 5.0 0.00 0.00 0.00 50 1013.9
20260830121504 94 45 1.0 3.0 0.00 0.00 0.00 51 1014.0
20260830120007 91 74 2.0 4.0 0.00 0.00 0.00 52 1014.0
20260830114505 92 90 2.0 3.0 0.00 0.00 0.00 53 1014.0
20260830113006 93 23 1.0 4.0 0.00 0.00 0.00 50 1014.0
20260830111504 93 23 1.0 2.0 0.00 0.00 0.00 55 1014.0
20260830110007 92 31 1.0 2.0 0.00 0.00 0.00 55 1014.1
20260830104504 92 23 1.0 4.0 0.00 0.00 0.00 54 1014.2
20260830103007 91 54 1.0 2.0 0.00 0.00 0.00 56 1014.3
20260830101504 90 112 1.0 1.0 0.00 0.00 0.00 58 1014.5
20260830100006 89 19 3.0 4.0 0.00 0.00 0.00 57 1014.8
20260830094505 91 1 1.0 2.0 0.00 0.00 0.00 56 1014.7
20260830093006 90 337 1.0 2.0 0.00 0.00 0.00 55 1014.9
20260830091504 90 334 1.0 2.0 0.00 0.00 0.00 57 1015.0
20260830090007 89 23 1.0 1.0 0.00 0.00 0.00 57 1015.1
20260830084504 87 22 2.0 5.0 0.00 0.00 0.00 59 1015.2
20260830083007 88 4 1.0 1.0 0.00 0.00 0.00 57 1015.1
20260830081504 87 349 1.0 5.0 0.00 0.00 0.00 58 1015.0
20260830080007 87 0 0.0 0.0 0.00 0.00 0.00 60 1015.1
20260830074504 87 23 1.0 4.0 0.00 0.00 0.00 60 1015.1
20260830073006 85 0 0.0 0.0 0.00 0.00 0.00 62 1014.8
20260830071505 84 0 0.0 0.0 0.00 0.00 0.00 64 1014.7
20260830070006 80 292 0.0 2.0 0.00 0.00 0.00 67 1014.8
20260830064505 78 292 3.0 4.0 0.00 0.00 0.00 71 1014.6